Tiempo cada hora Alice Springs

Hoy, 28 Julio, Miércoles

Tiempo Temperatura Precipitaciones Viento Presión Humedad
00:00 +20°C° 0 mm 5 mps 707 mmHg 40%
01:00 +19°C° 0 mm 4 mps 707 mmHg 40%
02:00 +19°C° 0 mm 4 mps 707 mmHg 40%
03:00 +18°C° 0 mm 3 mps 707 mmHg 41%
04:00 +18°C° 0 mm 3 mps 707 mmHg 40%
05:00 +17°C° 0 mm 3 mps 707 mmHg 39%
06:00 +17°C° 0 mm 3 mps 707 mmHg 38%
07:00 +20°C° 0 mm 4 mps 708 mmHg 34%
08:00 +22°C° 0 mm 4 mps 709 mmHg 29%
09:00 +25°C° 0 mm 5 mps 709 mmHg 26%
10:00 +26°C° 0 mm 4 mps 709 mmHg 27%
11:00 +26°C° 0 mm 4 mps 709 mmHg 29%
12:00 +27°C° 0 mm 4 mps 709 mmHg 31%
13:00 +27°C° 0 mm 4 mps 709 mmHg 30%
14:00 +28°C° 0 mm 4 mps 708 mmHg 29%
15:00 +28°C° 0 mm 5 mps 708 mmHg 28%
16:00 +27°C° 0 mm 4 mps 708 mmHg 32%
17:00 +25°C° 0 mm 4 mps 708 mmHg 36%
18:00 +24°C° 0 mm 3 mps 708 mmHg 40%
19:00 +21°C° 0 mm 3 mps 708 mmHg 45%
20:00 +20°C° 0 mm 3 mps 709 mmHg 49%
21:00 +18°C° 0 mm 2 mps 709 mmHg 54%
22:00 +18°C° 0 mm 2 mps 709 mmHg 58%
23:00 +17°C° 0 mm 2 mps 709 mmHg 62%

Mañana, 29 Julio, Jueves

Tiempo Temperatura Precipitaciones Viento Presión Humedad
00:00 +16°C° 0 mm 2 mps 709 mmHg 66%
01:00 +16°C° 0 mm 2 mps 709 mmHg 67%
02:00 +15°C° 0 mm 2 mps 708 mmHg 68%
03:00 +15°C° 0 mm 2 mps 708 mmHg 69%
04:00 +15°C° 0 mm 2 mps 708 mmHg 70%
05:00 +15°C° 0 mm 2 mps 708 mmHg 70%
06:00 +15°C° 0 mm 2 mps 708 mmHg 71%
07:00 +17°C° 0 mm 2 mps 709 mmHg 63%
08:00 +19°C° 0 mm 2 mps 710 mmHg 55%
09:00 +21°C° 0 mm 2 mps 710 mmHg 47%
10:00 +24°C° 0 mm 3 mps 710 mmHg 41%
11:00 +26°C° 0 mm 4 mps 710 mmHg 34%
12:00 +29°C° 0 mm 6 mps 710 mmHg 28%
13:00 +29°C° 0 mm 6 mps 709 mmHg 26%
14:00 +30°C° 0 mm 7 mps 708 mmHg 23%
15:00 +30°C° 0 mm 7 mps 708 mmHg 21%
16:00 +28°C° 0 mm 6 mps 708 mmHg 23%
17:00 +27°C° 0 mm 5 mps 707 mmHg 25%
18:00 +25°C° 0 mm 4 mps 707 mmHg 28%
19:00 +24°C° 0 mm 3 mps 708 mmHg 29%
20:00 +22°C° 0 mm 3 mps 708 mmHg 31%
21:00 +21°C° 0 mm 3 mps 708 mmHg 32%
22:00 +20°C° 0 mm 2 mps 708 mmHg 34%
23:00 +19°C° 0 mm 2 mps 708 mmHg 36%

Pasado mañana, 30 Julio, Viernes

Tiempo Temperatura Precipitaciones Viento Presión Humedad
00:00 +18°C° 0 mm 2 mps 708 mmHg 38%
01:00 +18°C° 0 mm 2 mps 707 mmHg 38%
02:00 +18°C° 0 mm 3 mps 707 mmHg 38%
03:00 +18°C° 0 mm 3 mps 707 mmHg 38%
04:00 +18°C° 0 mm 3 mps 707 mmHg 39%
05:00 +18°C° 0 mm 4 mps 708 mmHg 39%
06:00 +18°C° 0 mm 4 mps 708 mmHg 39%
07:00 +20°C° 0 mm 4 mps 708 mmHg 34%
08:00 +23°C° 0 mm 5 mps 709 mmHg 30%
09:00 +26°C° 0 mm 5 mps 710 mmHg 25%
10:00 +28°C° 0 mm 6 mps 709 mmHg 23%
11:00 +30°C° 0 mm 7 mps 709 mmHg 21%
12:00 +32°C° 0 mm 8 mps 709 mmHg 18%
13:00 +33°C° 0 mm 8 mps 708 mmHg 17%
14:00 +33°C° 0 mm 9 mps 708 mmHg 16%
15:00 +33°C° 0 mm 9 mps 707 mmHg 15%
16:00 +31°C° 0 mm 8 mps 707 mmHg 18%
17:00 +28°C° 0 mm 6 mps 707 mmHg 20%
18:00 +26°C° 0 mm 4 mps 707 mmHg 23%
19:00 +25°C° 0 mm 4 mps 707 mmHg 25%
20:00 +24°C° 0 mm 3 mps 708 mmHg 27%
21:00 +21°C° 0 mm 3 mps 708 mmHg 29%
22:00 +21°C° 0 mm 3 mps 708 mmHg 30%
23:00 +20°C° 0 mm 3 mps 708 mmHg 31%

31 Julio, Sábado

Tiempo Temperatura Precipitaciones Viento Presión Humedad
00:00 +20°C° 0 mm 3 mps 708 mmHg 32%
01:00 +19°C° 0 mm 3 mps 708 mmHg 33%
02:00 +19°C° 0 mm 3 mps 707 mmHg 33%
03:00 +19°C° 0 mm 4 mps 707 mmHg 34%
04:00 +18°C° 0 mm 4 mps 707 mmHg 36%
05:00 +18°C° 0 mm 4 mps 707 mmHg 37%
06:00 +17°C° 0 mm 4 mps 708 mmHg 39%
07:00 +20°C° 0 mm 4 mps 708 mmHg 34%
08:00 +22°C° 0 mm 4 mps 708 mmHg 30%
09:00 +26°C° 0 mm 4 mps 709 mmHg 25%
10:00 +28°C° 0 mm 6 mps 709 mmHg 23%
11:00 +30°C° 0 mm 7 mps 708 mmHg 20%
12:00 +33°C° 0 mm 9 mps 708 mmHg 18%
13:00 +33°C° 0 mm 10 mps 707 mmHg 17%
14:00 +33°C° 0 mm 10 mps 707 mmHg 16%
15:00 +34°C° 0 mm 11 mps 706 mmHg 14%
16:00 +32°C° 0 mm 9 mps 706 mmHg 17%
17:00 +29°C° 0 mm 7 mps 707 mmHg 20%
18:00 +27°C° 0 mm 5 mps 707 mmHg 23%
19:00 +26°C° 0 mm 5 mps 707 mmHg 26%
20:00 +23°C° 0 mm 4 mps 707 mmHg 28%
21:00 +22°C° 0 mm 4 mps 708 mmHg 30%
22:00 +21°C° 0 mm 4 mps 708 mmHg 31%
23:00 +21°C° 0 mm 4 mps 708 mmHg 32%

1 Agosto, Domingo

Tiempo Temperatura Precipitaciones Viento Presión Humedad
00:00 +20°C° 0 mm 3 mps 708 mmHg 32%
01:00 +19°C° 0 mm 3 mps 707 mmHg 38%
02:00 +18°C° 0 mm 3 mps 707 mmHg 44%
03:00 +16°C° 0 mm 3 mps 707 mmHg 49%
04:00 +14°C° 0 mm 3 mps 707 mmHg 55%
05:00 +13°C° 0 mm 3 mps 708 mmHg 61%
06:00 +12°C° 0 mm 3 mps 708 mmHg 67%
07:00 +14°C° 0 mm 3 mps 708 mmHg 63%
08:00 +16°C° 0 mm 3 mps 709 mmHg 60%
09:00 +18°C° 0 mm 4 mps 709 mmHg 57%
10:00 +20°C° 0 mm 3 mps 709 mmHg 51%
11:00 +21°C° 0 mm 2 mps 709 mmHg 45%
12:00 +24°C° 0 mm 1 mps 709 mmHg 39%
13:00 +26°C° 0 mm 2 mps 708 mmHg 35%
14:00 +27°C° 0 mm 4 mps 707 mmHg 31%
15:00 +29°C° 0 mm 6 mps 707 mmHg 27%
16:00 +27°C° 0 mm 5 mps 707 mmHg 28%
17:00 +26°C° 0 mm 4 mps 707 mmHg 30%
18:00 +25°C° 0 mm 4 mps 707 mmHg 32%
19:00 +22°C° 0 mm 4 mps 707 mmHg 35%
20:00 +20°C° 0 mm 3 mps 708 mmHg 39%
21:00 +19°C° 0 mm 3 mps 708 mmHg 42%
22:00 +17°C° 0 mm 3 mps 708 mmHg 44%
23:00 +16°C° 0 mm 3 mps 708 mmHg 45%

2 Agosto, Lunes

Tiempo Temperatura Precipitaciones Viento Presión Humedad
00:00 +14°C° 0 mm 3 mps 708 mmHg 47%
01:00 +13°C° 0 mm 3 mps 708 mmHg 44%
02:00 +13°C° 0 mm 3 mps 708 mmHg 42%
03:00 +12°C° 0 mm 3 mps 708 mmHg 40%
04:00 +11°C° 0 mm 3 mps 708 mmHg 39%
05:00 +10°C° 0 mm 3 mps 709 mmHg 37%
06:00 +9°C° 0 mm 3 mps 709 mmHg 36%
07:00 +11°C° 0 mm 4 mps 710 mmHg 33%
08:00 +13°C° 0 mm 4 mps 710 mmHg 30%
09:00 +15°C° 0 mm 5 mps 711 mmHg 26%
10:00 +16°C° 0 mm 5 mps 711 mmHg 23%
11:00 +19°C° 0 mm 5 mps 710 mmHg 19%
12:00 +21°C° 0 mm 4 mps 710 mmHg 15%
13:00 +22°C° 0 mm 4 mps 710 mmHg 14%
14:00 +23°C° 0 mm 4 mps 710 mmHg 14%
15:00 +23°C° 0 mm 4 mps 709 mmHg 13%
16:00 +21°C° 0 mm 4 mps 709 mmHg 16%
17:00 +19°C° 0 mm 4 mps 709 mmHg 18%
18:00 +17°C° 0 mm 4 mps 710 mmHg 21%
19:00 +15°C° 0 mm 4 mps 710 mmHg 26%
20:00 +13°C° 0 mm 3 mps 711 mmHg 30%
21:00 +12°C° 0 mm 3 mps 711 mmHg 35%
22:00 +11°C° 0 mm 3 mps 711 mmHg 38%
23:00 +10°C° 0 mm 3 mps 711 mmHg 40%
Mostrar más

Necesitamos Su Consentimiento

Meteoprog y nuestros Proveedores de Servicios pueden almacenar y acceder a sus datos personales como cookies, identificadores de dispositivo u otras tecnologías similares de su dispositivo y procesar dichos datos para personalizar contenido y anuncios, además de ofrecer funciones de redes sociales y analizar el tráfico.

  • Almacenar y/o acceder a información en su dispositivo

    Se puede almacenar o acceder a cookies, identificadores de dispositivo u otra información de su dispositivo para los fines anteriormente indicados.

  • Anuncios y contenido personalizados, medición de anuncios y contenido, percepciones del público, y desarrollo de productos

    Los anuncios y el contenido pueden personalizarse en base a su perfil. Se pueden añadir más datos para personalizar mejor los anuncios y contenidos. Se puede medir el rendimiento de los anuncios y contenidos. Se puede obtener la percepción sobre el público que ha visto los anuncios y contenidos. Dichos datos pueden usarse para desarrollar o mejorar la experiencia del usuario, sistemas y software.

Al hacer clic en ‘Estoy De Acuerdo’ usted permitirá el uso de las cookies, identificadores de dispositivo, balizas web u otras tecnologías similares indicadas. Su configuración puede cambiarse desde el navegador de su dispositivo.

Para ciertos fines, los intereses legítimos pueden ser considerados por encima del consentimiento. Puede leer más sobre ello en nuestra Política de Privacidad y Cookies.